Exeter, United Kingdom

9:06 AM BST on July 28, 2017 (GMT +0100)
Exeter

Weather History for EGTE - August, 2013

Change the Weather History Date:

Saturday, August 3, 2013

  Actual Average Record
Temperature  
Mean Temperature 64 °F -  
Max Temperature 73 °F 68 °F 77 °F (2003)
Min Temperature 54 °F 53 °F 46 °F (1996)
Degree Days  
Heating Degree Days 2    
Growing Degree Days 14 (Base 50)    
Moisture  
Dew Point 55 °F    
Average Humidity 74    
Maximum Humidity 100    
Minimum Humidity 47    
Precipitation  
Precipitation 0.00 in - - ()
Sea Level Pressure  
Sea Level Pressure 29.97 in    
Wind  
Wind Speed 8 mph ()    
Max Wind Speed 20 mph    
Max Gust Speed -    
Visibility 6.2 miles    
Events Rain    
Averages and records for this station are not official NWS values.
T = Trace of Precipitation, MM = Missing Value Source: Averaged Metar Reports

Daily Weather History Graph

Daily Weather History Graph

Search for Another Location

Airport or City:

Trip Planner

Search our weather history database for the weather conditions in past years. The results will help you decide how hot, cold, wet, or windy it might be!

Date:

Astronomy

Aug. 03, 2013 Rise Set
Actual Time 5:43 AM BST 8:55 PM BST
Civil Twilight 5:04 AM BST 9:34 PM BST
Nautical Twilight 4:12 AM BST 10:25 PM BST
Astronomical Twilight 3:04 AM BST 11:31 PM BST
Moon 2:36 AM BST (8/3) 6:31 PM BST (8/3)
Length of Visible Light 16h 30m
Length of Day
15h 11m
Waning Crescent, 11% of the Moon is Illuminated
Aug 3
Waning Crescent
Aug 6
New
Aug 14
First Quarter
Aug 21
Full
Aug 28
Last Quarter

Hourly Weather History & Observations

Time (BST) Temp. Dew Point Humidity Pressure Visibility Wind Dir Wind Speed Gust Speed Precip Events Conditions
12:20 AM 55.4 °F 53.6 °F 94% 29.80 in 6.2 mi South 4.6 mph - N/A   Partly Cloudy
12:50 AM 57 °F 56 °F 96%  in - Calm Calm - -  
12:50 AM 55.4 °F 55.4 °F 100% 29.80 in 6.2 mi SSE 5.8 mph - N/A   Partly Cloudy
1:20 AM 57.2 °F 55.4 °F 94% 29.83 in 6.2 mi South 4.6 mph - N/A Rain Light Rain Showers
1:50 AM 57.2 °F 57.2 °F 100% 29.83 in 6.2 mi Variable 3.5 mph - N/A   Partly Cloudy
2:20 AM 57.2 °F 57.2 °F 100% 29.83 in 6.2 mi Variable 2.3 mph - N/A Rain Light Rain Showers
2:50 AM 57.2 °F 57.2 °F 100% 29.83 in 6.2 mi South 4.6 mph - N/A Rain Light Rain Showers
3:50 AM 58 °F 56 °F 92%  in - Calm Calm - -  
5:20 AM 57.2 °F 55.4 °F 94% 29.86 in 6.2 mi South 8.1 mph - N/A   Partly Cloudy
5:50 AM 57.2 °F 55.4 °F 94% 29.89 in 6.2 mi South 6.9 mph - N/A   Partly Cloudy
6:20 AM 57.2 °F 55.4 °F 94% 29.89 in 6.2 mi South 6.9 mph - N/A   Partly Cloudy
6:50 AM 59 °F 56 °F 85%  in - Calm Calm - -  
6:50 AM 57.2 °F 55.4 °F 94% 29.89 in 6.2 mi South 6.9 mph - N/A   Partly Cloudy
7:20 AM 59.0 °F 57.2 °F 94% 29.92 in 6.2 mi South 6.9 mph - N/A   Partly Cloudy
7:50 AM 60.8 °F 57.2 °F 88% 29.92 in 6.2 mi South 6.9 mph - N/A   Partly Cloudy
8:20 AM 62.6 °F 57.2 °F 82% 29.92 in 6.2 mi South 6.9 mph - N/A   Partly Cloudy
8:50 AM 64.4 °F 57.2 °F 77% 29.95 in 6.2 mi SW 9.2 mph - N/A   Partly Cloudy
9:20 AM 64.4 °F 57.2 °F 77% 29.95 in 6.2 mi WSW 9.2 mph - N/A   Partly Cloudy
9:50 AM 66 °F 56 °F 62%  in - Calm Calm - -  
9:50 AM 66.2 °F 55.4 °F 68% 29.95 in 6.2 mi WSW 11.5 mph - N/A   Partly Cloudy
10:20 AM 66.2 °F 55.4 °F 68% 29.98 in 6.2 mi SW 12.7 mph - N/A   Partly Cloudy
10:50 AM 68.0 °F 55.4 °F 64% 29.98 in 6.2 mi SW 10.4 mph - N/A   Partly Cloudy
11:20 AM 68.0 °F 53.6 °F 60% 29.98 in 6.2 mi SW 12.7 mph - N/A   Scattered Clouds
11:50 AM 69.8 °F 53.6 °F 56% 29.98 in 6.2 mi SW 13.8 mph - N/A   Scattered Clouds
12:20 PM 69.8 °F 55.4 °F 60% 30.01 in 6.2 mi SSW 15.0 mph - N/A   Scattered Clouds
12:50 PM 69 °F 54 °F 48%  in - Calm Calm - -  
12:50 PM 69.8 °F 53.6 °F 56% 30.01 in 6.2 mi SW 15.0 mph - N/A Rain Light Rain Showers
1:20 PM 66.2 °F 59.0 °F 78% 30.01 in 6.2 mi SW 5.8 mph - N/A   Scattered Clouds
1:50 PM 69.8 °F 55.4 °F 60% 30.01 in 6.2 mi SW 12.7 mph - N/A   Scattered Clouds
2:20 PM 69.8 °F 55.4 °F 60% 30.01 in 6.2 mi SW 16.1 mph - N/A   Scattered Clouds
2:50 PM 69.8 °F 53.6 °F 56% 30.01 in 6.2 mi SW 17.3 mph - N/A   Scattered Clouds
3:20 PM 71.6 °F 53.6 °F 53% 30.01 in 6.2 mi SW 17.3 mph - N/A   Scattered Clouds
3:50 PM 71 °F 55 °F 47%  in - Calm Calm - -  
3:50 PM 71.6 °F 53.6 °F 53% 30.01 in 6.2 mi SW 19.6 mph - N/A   Scattered Clouds
4:20 PM 71.6 °F 55.4 °F 57% 30.04 in 6.2 mi SW 16.1 mph - N/A   Scattered Clouds
4:50 PM 69.8 °F 53.6 °F 56% 30.04 in 6.2 mi SW 18.4 mph - N/A   Scattered Clouds
5:20 PM 69.8 °F 53.6 °F 56% 30.04 in 6.2 mi SW 16.1 mph - N/A   Scattered Clouds
5:50 PM 69.8 °F 51.8 °F 53% 30.04 in 6.2 mi SSW 17.3 mph - N/A   Scattered Clouds
6:20 PM 68.0 °F 53.6 °F 60% 30.04 in 6.2 mi SW 15.0 mph - N/A   Scattered Clouds
6:50 PM 67 °F 54 °F 54%  in - Calm Calm - -  
6:50 PM 68.0 °F 53.6 °F 60% 30.04 in 6.2 mi SW 13.8 mph - N/A   Scattered Clouds
7:20 PM 66.2 °F 55.4 °F 68% 30.04 in 6.2 mi SW 16.1 mph - N/A   Scattered Clouds
7:50 PM 66.2 °F 53.6 °F 64% 30.04 in 6.2 mi SW 13.8 mph - N/A   Scattered Clouds
8:20 PM 66.2 °F 55.4 °F 68% 30.06 in 6.2 mi SW 10.4 mph - N/A   Scattered Clouds
8:50 PM 64.4 °F 55.4 °F 73% 30.06 in 6.2 mi SSW 8.1 mph - N/A   Scattered Clouds
9:20 PM 62.6 °F 55.4 °F 77% 30.06 in 6.2 mi SSW 10.4 mph - N/A   Partly Cloudy
9:50 PM 62 °F 55 °F 72%  in - Calm Calm - -  
9:50 PM 62.6 °F 55.4 °F 77% 30.06 in 6.2 mi SSW 5.8 mph - N/A   Partly Cloudy
10:20 PM 60.8 °F 55.4 °F 82% 30.06 in 6.2 mi SSW 8.1 mph - N/A   Partly Cloudy
10:50 PM 60.8 °F 57.2 °F 88% 30.06 in - South 8.1 mph - N/A   Clear
11:20 PM 59.0 °F 57.2 °F 94% 30.06 in - South 8.1 mph - N/A   Clear
11:50 PM 59.0 °F 57.2 °F 94% 30.06 in - South 8.1 mph - N/A   Clear